Weather History for Buffalo, NY

Change the Weather History Date:

Saturday, January 19, 2013

  Actual Average Record
Temperature  
Mean Temperature 40 °F 24 °F  
Max Temperature 48 °F 31 °F 62 °F (1907)
Min Temperature 32 °F 18 °F -10 °F (1994)
Degree Days  
Heating Degree Days 25 41  
Month to date heating degree days 595 757  
Since 1 July heating degree days 2756 3172  
Cooling Degree Days 0 0  
Month to date cooling degree days 0 0  
Year to date cooling degree days 0 0  
Moisture  
Dew Point 24 °F    
Average Humidity 53    
Maximum Humidity 64    
Minimum Humidity 42    
Precipitation  
Precipitation 0.00 in 0.10 in 1.14 in (1996)
Month to date precipitation 0.64 2.06  
Year to date precipitation 0.64 2.06  
Snow  
Snow 0.00 in 0.70 in 15.60 in (1985)
Month to date snowfall 2.3 16.3  
Since 1 July snowfall 24.3 52.5  
Snow Depth T in    
Sea Level Pressure  
Sea Level Pressure 29.87 in    
Wind  
Wind Speed 19 mph (SW)    
Max Wind Speed 30 mph    
Max Gust Speed 41 mph    
Visibility 10 miles    
Events      
T = Trace of Precipitation, MM = Missing Value Source: NWS Daily Summary

Daily Weather History Graph

Daily Weather History Graph

Search for Another Location

Airport:

Trip Planner

Search our weather history database for the weather conditions in past years. The results will help you decide how hot, cold, wet, or windy it might be!

Date:

Astronomy

Jan. 19, 2013 Rise Set
Actual Time 7:40 AM EST 5:11 PM EST
Civil Twilight 7:09 AM EST 5:42 PM EST
Nautical Twilight 6:34 AM EST 6:17 PM EST
Astronomical Twilight 6:01 AM EST 6:50 PM EST
Moon 11:38 AM EST (1/19) 1:11 AM EST (1/19)
Length of Visible Light 10h 32m
Length of Day
9h 30m
First Quarter, 57% of the Moon is Illuminated
Jan 19
First Quarter
Jan 26
Full
Feb 3
Last Quarter
Feb 10
New
Feb 17
First Quarter

Hourly Weather History & Observations

Time (EST) Temp. Windchill Dew Point Humidity Pressure Visibility Wind Dir Wind Speed Gust Speed Precip Events Conditions
12:54 AM 33.1 °F 23.0 °F 17.1 °F 52% 30.02 in 10.0 mi SSW 15.0 mph - N/A   Overcast
1:54 AM 34.0 °F 23.4 °F 17.1 °F 50% 30.01 in 10.0 mi SSW 17.3 mph 21.9 mph N/A   Overcast
2:54 AM 35.1 °F 25.9 °F 18.0 °F 50% 30.00 in 10.0 mi SSW 13.8 mph - N/A   Overcast
3:54 AM 37.0 °F 28.5 °F 19.0 °F 48% 29.98 in 10.0 mi SW 13.8 mph - N/A   Overcast
4:54 AM 41.0 °F 31.6 °F 21.9 °F 47% 29.95 in 10.0 mi SW 20.7 mph 32.2 mph N/A   Overcast
5:54 AM 41.0 °F 31.4 °F 23.0 °F 49% 29.95 in 10.0 mi SW 21.9 mph 34.5 mph N/A   Overcast
6:54 AM 41.0 °F 31.1 °F 21.2 °F 45% 29.91 in 10.0 mi SW 23.0 mph 34.5 mph N/A   Mostly Cloudy
7:54 AM 41.0 °F 30.7 °F 21.9 °F 47% 29.93 in 10.0 mi SW 25.3 mph 36.8 mph N/A   Mostly Cloudy
8:54 AM 41.0 °F 30.9 °F 23.0 °F 49% 29.95 in 10.0 mi SW 24.2 mph 38.0 mph N/A   Mostly Cloudy
9:54 AM 42.1 °F 32.1 °F 24.1 °F 49% 29.96 in 10.0 mi SW 25.3 mph 34.5 mph N/A   Mostly Cloudy
10:54 AM 43.0 °F 33.1 °F 27.0 °F 53% 29.97 in 10.0 mi WSW 26.5 mph 36.8 mph N/A   Mostly Cloudy
11:54 AM 42.1 °F 32.3 °F 27.0 °F 55% 29.95 in 10.0 mi SW 24.2 mph 36.8 mph N/A   Mostly Cloudy
12:54 PM 42.1 °F 32.8 °F 27.0 °F 55% 29.92 in 10.0 mi SW 21.9 mph 35.7 mph N/A   Overcast
1:54 PM 44.1 °F 34.8 °F 27.0 °F 51% 29.89 in 10.0 mi SW 25.3 mph 38.0 mph N/A   Overcast
2:54 PM 44.1 °F 35.2 °F 27.0 °F 51% 29.87 in 10.0 mi SW 23.0 mph 29.9 mph N/A   Overcast
3:54 PM 44.1 °F 37.4 °F 27.0 °F 51% 29.84 in 10.0 mi SW 13.8 mph 23.0 mph N/A   Overcast
4:54 PM 42.1 °F 36.6 °F 28.9 °F 60% 29.80 in 10.0 mi SSW 9.2 mph - N/A   Mostly Cloudy
5:54 PM 39.9 °F 36.7 °F 28.9 °F 65% 29.76 in 10.0 mi South 4.6 mph - N/A   Mostly Cloudy
6:54 PM 39.9 °F 35.8 °F 28.9 °F 65% 29.74 in 10.0 mi South 5.8 mph - N/A   Overcast
7:54 PM 44.1 °F 37.7 °F 28.0 °F 53% 29.72 in 10.0 mi SW 12.7 mph - N/A   Overcast
8:54 PM 45.0 °F 37.9 °F 27.0 °F 49% 29.70 in 10.0 mi SW 16.1 mph - N/A   Overcast
9:54 PM 46.9 °F - 25.0 °F 42% 29.66 in 10.0 mi SW 23.0 mph 29.9 mph N/A   Overcast
10:54 PM 46.9 °F - 25.0 °F 42% 29.62 in 10.0 mi SSW 21.9 mph 34.5 mph N/A   Mostly Cloudy
11:54 PM 48.0 °F - 26.1 °F 42% 29.59 in 10.0 mi SW 27.6 mph 38.0 mph N/A   Overcast